Weather History for Clinton, AR

Change the Weather History Date:

Sunday, May 19, 2013

  Actual Average (KFLP) Record (KFLP)
Temperature  
Mean Temperature 74 °F -  
Max Temperature 84 °F 76 °F 93 °F (2006)
Min Temperature 64 °F 55 °F 39 °F (2002)
Cooling Degree Days 9    
Growing Degree Days 24 (Base 50)    
Moisture  
Dew Point 68 °F    
Average Humidity 82    
Maximum Humidity 100    
Minimum Humidity 58    
Precipitation  
Precipitation 0.00 in - - ()
Sea Level Pressure  
Sea Level Pressure 29.86 in    
Wind  
Wind Speed 3 mph (SSE)    
Max Wind Speed 14 mph    
Max Gust Speed 23 mph    
Visibility 6 miles    
Events Fog    
Averages and records for this station are not official NWS values.
T = Trace of Precipitation, MM = Missing Value Source: NWS Daily Summary

Daily Weather History Graph

Daily Weather History Graph

Search for Another Location

Airport:

Trip Planner

Search our weather history database for the weather conditions in past years. The results will help you decide how hot, cold, wet, or windy it might be!

Date:

Astronomy

May. 19, 2013 Rise Set
Actual Time 6:01 AM CDT 8:11 PM CDT
Civil Twilight 5:33 AM CDT 8:39 PM CDT
Nautical Twilight 4:58 AM CDT 9:15 PM CDT
Astronomical Twilight 4:20 AM CDT 9:53 PM CDT
Moon 2:27 PM CDT (5/19) 2:13 AM CDT (5/19)
Length of Visible Light 15h 06m
Length of Day
14h 09m
Waxing Gibbous, 65% of the Moon is Illuminated
May 19
Waxing Gibbous
May 24
Full
May 31
Last Quarter
Jun 8
New
Jun 16
First Quarter

Hourly Weather History & Observations

Time (CDT) Temp. Heat Index Dew Point Humidity Pressure Visibility Wind Dir Wind Speed Gust Speed Precip Events Conditions
12:15 AM 68.0 °F - 68.0 °F 100% 29.90 in 1.2 mi Calm Calm - N/A   Clear
12:35 AM 68.0 °F - 68.0 °F 100% 29.90 in 0.8 mi Calm Calm - N/A   Overcast
12:55 AM 68.0 °F - 68.0 °F 100% 29.89 in 1.0 mi Calm Calm - N/A   Overcast
1:15 AM 66.2 °F - 66.2 °F 100% 29.89 in 0.5 mi Calm Calm - N/A Fog Fog
1:35 AM 66.2 °F - 66.2 °F 100% 29.88 in 0.2 mi Calm Calm - N/A Fog Fog
1:55 AM 66.2 °F - 66.2 °F 100% 29.88 in 0.2 mi Calm Calm - N/A Fog Fog
2:15 AM 66.2 °F - 66.2 °F 100% 29.88 in 0.2 mi Calm Calm - N/A Fog Fog
2:35 AM 66.2 °F - 66.2 °F 100% 29.88 in 0.2 mi Calm Calm - N/A Fog Fog
2:55 AM 66.2 °F - 66.2 °F 100% 29.88 in 0.2 mi Calm Calm - N/A Fog Fog
3:15 AM 66.2 °F - 66.2 °F 100% 29.88 in 0.2 mi Calm Calm - N/A Fog Fog
3:35 AM 66.2 °F - 66.2 °F 100% 29.88 in 0.2 mi Calm Calm - N/A Fog Fog
3:55 AM 64.4 °F - 64.4 °F 100% 29.88 in 1.0 mi Calm Calm - N/A   Overcast
4:15 AM 64.4 °F - 64.4 °F 100% 29.88 in 0.2 mi Calm Calm - N/A Fog Fog
4:35 AM 64.4 °F - 64.4 °F 100% 29.86 in 0.2 mi Calm Calm - N/A Fog Fog
4:55 AM 64.4 °F - 64.4 °F 100% 29.87 in 0.2 mi Calm Calm - N/A Fog Fog
5:15 AM 64.4 °F - 64.4 °F 100% 29.87 in 0.2 mi Calm Calm - N/A Fog Fog
5:35 AM 64.4 °F - 64.4 °F 100% 29.88 in 0.2 mi Calm Calm - N/A Fog Fog
5:55 AM 64.4 °F - 64.4 °F 100% 29.88 in 0.2 mi Calm Calm - N/A Fog Fog
6:15 AM 64.4 °F - 64.4 °F 100% 29.89 in 0.8 mi Calm Calm - N/A   Overcast
6:35 AM 64.4 °F - 64.4 °F 100% 29.89 in 1.2 mi Calm Calm - N/A   Overcast
6:55 AM 64.4 °F - 64.4 °F 100% 29.90 in 1.0 mi Calm Calm - N/A   Overcast
7:15 AM 66.2 °F - 66.2 °F 100% 29.91 in 1.5 mi Calm Calm - N/A   Mostly Cloudy
7:35 AM 66.2 °F - 66.2 °F 100% 29.91 in 1.8 mi Calm Calm - N/A   Scattered Clouds
7:55 AM 68.0 °F - 68.0 °F 100% 29.91 in 2.0 mi Calm Calm - N/A   Clear
8:15 AM 69.8 °F - 69.8 °F 100% 29.91 in 2.5 mi Calm Calm - N/A   Clear
8:35 AM 73.4 °F - 73.4 °F 100% 29.91 in 5.0 mi Calm Calm - N/A   Clear
8:55 AM 77.0 °F - 71.6 °F 83% 29.91 in 7.0 mi SSE 5.8 mph - N/A   Clear
9:15 AM 78.8 °F - 69.8 °F 74% 29.90 in 8.0 mi South 9.2 mph - N/A   Clear
9:35 AM 78.8 °F - 69.8 °F 74% 29.90 in 8.0 mi South 8.1 mph - N/A   Clear
9:55 AM 80.6 °F 83.2 °F 68.0 °F 65% 29.90 in 9.0 mi SSW 10.4 mph 18.4 mph N/A   Clear
10:15 AM 78.8 °F - 68.0 °F 69% 29.90 in 9.0 mi South 8.1 mph - N/A   Clear
10:35 AM 78.8 °F - 68.0 °F 69% 29.90 in 8.0 mi South 9.2 mph - N/A   Clear
10:55 AM 80.6 °F 83.9 °F 69.8 °F 70% 29.90 in 8.0 mi South 8.1 mph - N/A   Clear
11:15 AM 80.6 °F 83.2 °F 68.0 °F 65% 29.90 in 9.0 mi South 8.1 mph - N/A   Clear
11:35 AM 80.6 °F 83.9 °F 69.8 °F 70% 29.90 in 9.0 mi SSE 4.6 mph - N/A   Clear
11:55 AM 80.6 °F 83.9 °F 69.8 °F 70% 29.90 in 10.0 mi South 8.1 mph - N/A   Clear
12:15 PM 80.6 °F 83.9 °F 69.8 °F 70% 29.89 in 9.0 mi SSE 9.2 mph - N/A   Clear
12:35 PM 80.6 °F 83.2 °F 68.0 °F 65% 29.88 in 9.0 mi SSE 6.9 mph - N/A   Clear
12:55 PM 82.4 °F 86.3 °F 69.8 °F 66% 29.88 in 10.0 mi SSE 12.7 mph - N/A   Clear
1:15 PM 82.4 °F 84.6 °F 66.2 °F 58% 29.88 in 10.0 mi SSW 9.2 mph - N/A   Clear
1:35 PM 80.6 °F 83.2 °F 68.0 °F 65% 29.87 in 9.0 mi SSE 5.8 mph - N/A   Clear
1:55 PM 82.4 °F 86.3 °F 69.8 °F 66% 29.87 in 8.0 mi SSE 10.4 mph - N/A   Clear
2:15 PM 80.6 °F 83.9 °F 69.8 °F 70% 29.86 in 8.0 mi SSE 8.1 mph - N/A   Clear
2:35 PM 80.6 °F 83.2 °F 68.0 °F 65% 29.86 in 9.0 mi SSE 8.1 mph 16.1 mph N/A   Clear
2:55 PM 82.4 °F 86.3 °F 69.8 °F 66% 29.85 in 9.0 mi South 10.4 mph - N/A   Clear
3:15 PM 82.4 °F 86.3 °F 69.8 °F 66% 29.85 in 9.0 mi SSE 11.5 mph - N/A   Partly Cloudy
3:35 PM 82.4 °F 86.3 °F 69.8 °F 66% 29.84 in 9.0 mi SE 11.5 mph 18.4 mph N/A   Clear
3:55 PM 84.2 °F 88.4 °F 69.8 °F 62% 29.84 in 9.0 mi South 8.1 mph 17.3 mph N/A   Clear
4:15 PM 84.2 °F 88.4 °F 69.8 °F 62% 29.83 in 9.0 mi SSE 13.8 mph 20.7 mph N/A   Clear
4:35 PM 84.2 °F 87.3 °F 68.0 °F 58% 29.82 in 9.0 mi South 9.2 mph 19.6 mph N/A   Clear
4:55 PM 84.2 °F 88.4 °F 69.8 °F 62% 29.81 in 9.0 mi SSE 11.5 mph 23.0 mph N/A   Clear
5:15 PM 84.2 °F 88.4 °F 69.8 °F 62% 29.80 in 10.0 mi SSE 8.1 mph 18.4 mph N/A   Clear
5:35 PM 84.2 °F 88.4 °F 69.8 °F 62% 29.79 in 10.0 mi SSE 10.4 mph 17.3 mph N/A   Clear
5:55 PM 84.2 °F 88.4 °F 69.8 °F 62% 29.78 in 9.0 mi SSE 12.7 mph 21.9 mph N/A   Clear
6:15 PM 84.2 °F 88.4 °F 69.8 °F 62% 29.77 in 9.0 mi SSE 11.5 mph 16.1 mph N/A   Clear
6:35 PM 84.2 °F 88.4 °F 69.8 °F 62% 29.77 in 9.0 mi SSE 12.7 mph 20.7 mph N/A   Clear
6:55 PM 84.2 °F 88.4 °F 69.8 °F 62% 29.78 in 10.0 mi SSE 9.2 mph 17.3 mph N/A   Clear
7:15 PM 82.4 °F 86.3 °F 69.8 °F 66% 29.79 in 9.0 mi SSE 11.5 mph 17.3 mph N/A   Clear
7:35 PM 82.4 °F 86.3 °F 69.8 °F 66% 29.80 in 9.0 mi SSE 9.2 mph 19.6 mph N/A   Clear
7:55 PM 82.4 °F 86.3 °F 69.8 °F 66% 29.81 in 9.0 mi SSE 6.9 mph - N/A   Clear
8:15 PM 80.6 °F 83.9 °F 69.8 °F 70% 29.81 in 8.0 mi SSE 6.9 mph - N/A   Clear
8:35 PM 80.6 °F 83.9 °F 69.8 °F 70% 29.81 in 8.0 mi SSE 3.5 mph - N/A   Clear
8:55 PM 78.8 °F - 69.8 °F 74% 29.81 in 8.0 mi Calm Calm - N/A   Clear
9:15 PM 78.8 °F - 69.8 °F 74% 29.82 in 8.0 mi Calm Calm - N/A   Clear
9:35 PM 75.2 °F - 69.8 °F 83% 29.83 in 8.0 mi Calm Calm - N/A   Partly Cloudy
9:55 PM 73.4 °F - 69.8 °F 88% 29.84 in 7.0 mi Calm Calm - N/A   Partly Cloudy
10:15 PM 73.4 °F - 69.8 °F 88% 29.84 in 7.0 mi Calm Calm - N/A   Clear
10:35 PM 71.6 °F - 69.8 °F 94% 29.84 in 7.0 mi Calm Calm - N/A   Clear
10:55 PM 71.6 °F - 69.8 °F 94% 29.84 in 6.0 mi Calm Calm - N/A   Clear
11:15 PM 71.6 °F - 69.8 °F 94% 29.84 in 5.0 mi Calm Calm - N/A   Clear
11:35 PM 71.6 °F - 69.8 °F 94% 29.84 in 6.0 mi Calm Calm - N/A   Clear
11:55 PM 69.8 °F - 69.8 °F 100% 29.84 in 5.0 mi Calm Calm - N/A   Clear